Regional Weather Roundup
Issued by NWS

Home | Current Version | Previous Version | Graphics & Text | Print | Product List | Glossary On
Versions: 1 2 3 4 5 6 7 8 9 10 11 12 13 14 15 16 17 18 19 20 21 22 23 24 25 26 27 28 29 30 31 32 33 34 35 36 37 38 39 40 41 42 43 44 45 46 47 48 49 50
594
ASUS43 KIND 301909
RWRIN

WEATHER ROUNDUP FOR INDIANA
NATIONAL WEATHER SERVICE INDIANAPOLIS IN
300 PM EDT THU MAR 30 2017

NOTE: "FAIR" INDICATES FEW OR NO CLOUDS BELOW 12,000 FEET WITH NO
SIGNIFICANT WEATHER AND/OR OBSTRUCTIONS TO VISIBILITY.

* - STATION DOES NOT REPORT WEATHER SUCH AS PRECIPITATION OR FOG.

+ - STATION NOT QUALITY CONTROLLED BY THE NATIONAL WEATHER SERVICE.
    USE DATA WITH CAUTION...ESPECIALLY DEWPOINT AND RELATIVE
    HUMIDITY OBSERVATIONS.

INZ001>003-010>013-019-020-302000-
NORTHWEST INDIANA

CITY           SKY/WX    TMP DP  RH WIND       PRES   REMARKS
GARY /AIRPORT/ LGT RAIN  50  45  81 CALM      29.63F
KNOX *+        CLOUDY    46  32  57 E17G26    29.62F
LA PORTE +     CLOUDY    48  45  88 E21       29.63F
MICHIGAN CITY+ CLOUDY    50  45  81 SE17G24   29.62F
MONTICELLO +   CLOUDY    51  47  84 E12G20    29.60F
RENSSELAER +   LGT RAIN  50  48  93 E18G24    29.59F
VALPARAISO     CLOUDY    49  46  90 E21G29    29.62F

$$

LMZ046-743>745-302000-
SOUTHERN LAKE MICHIGAN

STATION/POSITION TIME  TEMP    WIND        PRES    WAVE
                       AIR SEA DIR/SP/G            HT
                 (UTC) (F)     (DEG/KT/KT) (MB)    (FT)
BURNS HARBOR     1840   49     130/ 19/ 29 1003.0F
MICHIGAN CITY    1840   47     110/ 17/ 22   N/A

$$

INZ004-005-014>016-021>024-302000-
NORTH CENTRAL INDIANA

CITY           SKY/WX    TMP DP  RH WIND       PRES   REMARKS
ELKHART        DRIZZLE   45  41  87 E17       29.68F
GOSHEN         CLOUDY    44  40  85 E8        29.72R
LOGANSPORT +   CLOUDY    50  46  87 E20       29.64F
PERU/GRISSOM   PTSUNNY   51  51 100 E16G28    29.63F
ROCHESTER +    CLOUDY    50  46  87 E18       29.65F
SOUTH BEND     CLOUDY    45  32  60 E20G28    29.66F
WARSAW +       LGT RAIN  43  41  93 E13G21    29.66F

$$

INZ006>009-017-018-025>027-302000-
NORTHEAST INDIANA

CITY           SKY/WX    TMP DP  RH WIND       PRES   REMARKS
ANGOLA *+      CLOUDY    39  32  75 E16       29.72F
AUBURN +       CLOUDY    43  41  93 E14G20    29.72F
FORT WAYNE     LGT RAIN  47  44  90 E17       29.70F
HUNTINGTON +   LGT RAIN  46  45  96 E13       29.68F
KENDALLVILLE + LGT RAIN  42  41  95 E15G22    29.71F

$$

INZ028-029-035-036-043>045-051>053-302000-
WEST CENTRAL INDIANA

CITY           SKY/WX    TMP DP  RH WIND       PRES   REMARKS
CRAWFORDSVL +  CLOUDY    64  58  80 SE10      29.56F
GREENCASTLE +  CLOUDY    72  54  53 SW10G17   29.56F
LAFAYETTE      TSTM      55  51  86 E14       29.58F
TERRE HAUTE    LGT RAIN  64  56  75 SW14      29.56R

$$

INZ030>032-037>040-046>048-054>057-064-065-302000-
CENTRAL INDIANA

CITY           SKY/WX    TMP DP  RH WIND       PRES   REMARKS
ANDERSON       MOSUNNY   59  55  88 E12       29.65F
CP ATTERBURY + PTSUNNY   73  59  60 S15       29.60F
COLUMBUS       MOSUNNY   72  63  73 S15G21    29.61F
FISHERS *+     CLOUDY    68  63  83 SE13      29.60F
FRANKFORT +    MOSUNNY   61  56  83 E17       29.60F
GREENWOOD *+   SUNNY     71  61  71 SE13      29.61F
INDIANAPOLIS   PTSUNNY   70  58  65 SE13      29.57F
-EAGLE CREEK   MOSUNNY   70  57  63 SE10      29.58F
KOKOMO +       MOSUNNY   53  49  86 E21G26    29.63F
MARION +       CLOUDY    51  47  87 E15G24    29.65F FOG
MT COMFORT *+  CLOUDY    68  59  73 SE10      29.62F
SHELBYVILLE    MOSUNNY   72  60  66 S15       29.61F
ZIONSVILLE +   MOSUNNY   64  57  76 E14       29.61F

$$

INZ033-034-041-042-049-050-058-059-302000-
EAST CENTRAL INDIANA

CITY           SKY/WX    TMP DP  RH WIND       PRES   REMARKS
MUNCIE         CLOUDY    59  54  83 E14       29.65F
RICHMOND +     MOSUNNY   63  57  82 NE7       29.66F

$$

INZ060-061-067>069-081>083-085>088-302000-
SOUTHWEST INDIANA

CITY           SKY/WX    TMP DP  RH WIND       PRES   REMARKS
EVANSVILLE     CLOUDY    78  55  44 SW22      29.58F
HUNTINGBURG *+ CLOUDY    76  56  49 S20G29    29.59F
WASHINGTON +   MOSUNNY   74  53  47 MISG      29.57F

$$

INZ062-063-066-070>080-084-089>092-302000-
SOUTH CENTRAL AND SOUTHEAST INDIANA

CITY           SKY/WX    TMP DP  RH WIND       PRES   REMARKS
BEDFORD +      CLOUDY    77  50  38 S18G30    29.59
BLOOMINGTON    CLOUDY    75  54  47 S21G29    29.57F
MADISON *+     CLOUDY    73  52  46 S18G26    29.66F
NORTH VERNON + CLOUDY    75  55  50 S18G28    29.64
SEYMOUR +      PTSUNNY   79  57  47 S20G26    29.61F

$$





USA.gov is the U.S. government's official web portal to all federal, state and local government web resources and services.